2024/02/07 00:00:00, 0.2, 1.7
2024/02/07 00:10:00, 0.1, 1.7
2024/02/07 00:20:00, 0.2, 1.4
2024/02/07 00:30:00, 0.1, 1.5
2024/02/07 00:40:00, 0.1, 1.5
2024/02/07 00:50:00, 0.2, 1.6
2024/02/07 01:00:00, 0.1, 1.5
2024/02/07 01:10:00, 0.2, 1.7
2024/02/07 01:20:00, 0.2, 2.0
2024/02/07 01:30:00, 0.3, 1.5
2024/02/07 01:40:00, 0.2, 1.5
2024/02/07 01:50:00, 0.3, 1.8
2024/02/07 02:00:00, 0.2, 1.7
2024/02/07 02:10:00, 0.2, 1.6
2024/02/07 02:20:00, 0.2, 1.8
2024/02/07 02:30:00, 0.2, 1.6
2024/02/07 02:40:00, 0.2, 1.6
2024/02/07 02:50:00, 0.2, 1.4
2024/02/07 03:00:00, 0.2, 1.5
2024/02/07 03:10:00, 0.2, 1.6
2024/02/07 03:20:00, 0.3, 1.3
2024/02/07 03:30:00, 0.2, 1.5
2024/02/07 03:40:00, 0.3, 1.4
2024/02/07 03:50:00, 0.2, 1.2
2024/02/07 04:00:00, 0.1, 1.5
2024/02/07 04:10:00, 0.2, 1.4
2024/02/07 04:20:00, 0.1, 1.3
2024/02/07 04:30:00, 0.2, 1.4
2024/02/07 04:40:00, 0.2, 1.4
2024/02/07 04:50:00, 0.3, 0.8
2024/02/07 05:00:00, 0.3, 1.2
2024/02/07 05:10:00, 0.4, 1.2
2024/02/07 05:20:00, 0.7, 1.6
2024/02/07 05:30:00, 0.6, 1.1
2024/02/07 05:40:00, 0.4, 1.2
2024/02/07 05:50:00, 0.4, 1.2
2024/02/07 06:00:00,20.8, 1.2
2024/02/07 06:10:00,177.7, 1.2
2024/02/07 06:20:00,177.6, 1.3
2024/02/07 06:30:00,177.1, 1.3
2024/02/07 06:40:00,176.9, 1.4
2024/02/07 06:50:00,177.2, 1.1
2024/02/07 07:00:00,---, 1.1
2024/02/07 07:10:00,177.9, 1.2
2024/02/07 07:20:00, 0.0, 1.1
2024/02/07 07:30:00,178.3, 1.2
2024/02/07 07:40:00,177.8, 1.2
2024/02/07 07:50:00,177.7, 1.1
2024/02/07 08:00:00,177.4, 1.1
2024/02/07 08:10:00,135.4, 1.4
2024/02/07 08:20:00,93.0, 1.6
2024/02/07 08:30:00,92.1, 1.5
2024/02/07 08:40:00,91.7, 1.8
2024/02/07 08:50:00,91.4, 1.9
2024/02/07 09:00:00,92.2, 2.2
2024/02/07 09:10:00,---, 2.2
2024/02/07 09:20:00,134.4, 2.5
2024/02/07 09:30:00,---, 2.9
2024/02/07 09:40:00,148.7, 3.0
2024/02/07 09:50:00,---, 2.8
2024/02/07 10:00:00,---, 2.8
2024/02/07 10:10:00,92.9, 3.5
2024/02/07 10:20:00,---, 4.2
2024/02/07 10:30:00,111.3, 4.0
2024/02/07 10:40:00,90.3, 3.9
2024/02/07 10:50:00,89.3, 3.8
2024/02/07 11:00:00,89.9, 3.6
2024/02/07 11:10:00,89.6, 4.1
2024/02/07 11:20:00,90.5, 3.9
2024/02/07 11:30:00,88.4, 5.2
2024/02/07 11:40:00,87.2, 6.0
2024/02/07 11:50:00,87.1, 5.9
2024/02/07 12:00:00,86.8, 5.2
2024/02/07 12:10:00,---, 5.4
2024/02/07 12:20:00,29.8, 5.6
2024/02/07 12:30:00,46.1, 6.0
2024/02/07 12:40:00,---, 5.3
2024/02/07 12:50:00,29.8, 5.6
2024/02/07 13:00:00,86.8, 5.8
2024/02/07 13:10:00,---, 4.5
2024/02/07 13:20:00,88.1, 3.9
2024/02/07 13:30:00,89.0, 3.6
2024/02/07 13:40:00,87.5, 3.8
2024/02/07 13:50:00,87.5, 3.7
2024/02/07 14:00:00,87.5, 4.2
2024/02/07 14:10:00,87.6, 4.2
2024/02/07 14:20:00,87.5, 4.4
2024/02/07 14:30:00,87.2, 4.9
2024/02/07 14:40:00,86.8, 5.2
2024/02/07 14:50:00,---, 6.7
2024/02/07 15:00:00,86.6, 5.8
2024/02/07 15:10:00,62.0, 5.7
2024/02/07 15:20:00,---, 5.3
2024/02/07 15:30:00,86.4, 5.0
2024/02/07 15:40:00,---, 5.2
2024/02/07 15:50:00,86.3, 4.9
2024/02/07 16:00:00,86.6, 5.0
2024/02/07 16:10:00,86.7, 4.6
2024/02/07 16:20:00,86.6, 4.5
2024/02/07 16:30:00,34.9, 4.4
2024/02/07 16:40:00, 0.5, 4.0
2024/02/07 16:50:00, 0.2, 3.9
2024/02/07 17:00:00, 0.3, 3.7
2024/02/07 17:10:00, 0.1, 3.4
2024/02/07 17:20:00, 0.1, 3.5
2024/02/07 17:30:00, 0.1, 3.1
2024/02/07 17:40:00, 0.1, 3.0
2024/02/07 17:50:00, 0.2, 2.7
2024/02/07 18:00:00, 0.1, 2.4
2024/02/07 18:10:00, 0.0, 1.5
2024/02/07 18:20:00, 0.0, 2.3
2024/02/07 18:30:00, 0.1, 2.1
2024/02/07 18:40:00, 0.0, 1.6
2024/02/07 18:50:00, 0.0, 1.6
2024/02/07 19:00:00, 0.0, 1.8
2024/02/07 19:10:00, 0.0, 1.7
2024/02/07 19:20:00, 0.0, 1.9
2024/02/07 19:30:00, 0.0, 1.9
2024/02/07 19:40:00, 0.0, 1.7
2024/02/07 19:50:00, 0.1, 1.9
2024/02/07 20:00:00, 0.0, 1.8
2024/02/07 20:10:00, 0.1, 1.9
2024/02/07 20:20:00, 0.0, 2.0
2024/02/07 20:30:00, 0.0, 2.1
2024/02/07 20:40:00, 0.0, 1.5
2024/02/07 20:50:00, 0.0, 1.5
2024/02/07 21:00:00, 0.0, 1.8
2024/02/07 21:10:00, 0.1, 1.3
2024/02/07 21:20:00, 0.1, 1.5
2024/02/07 21:30:00, 0.1, 1.2
2024/02/07 21:40:00, 0.0, 1.5
2024/02/07 21:50:00, 0.0, 1.8
2024/02/07 22:00:00, 0.0, 1.5
2024/02/07 22:10:00, 0.0, 1.6
2024/02/07 22:20:00, 0.0, 1.5
2024/02/07 22:30:00, 0.1, 1.6
2024/02/07 22:40:00, 0.1, 1.7
2024/02/07 22:50:00, 0.0, 1.5
2024/02/07 23:00:00, 0.0, 1.7
2024/02/07 23:10:00, 0.0, 1.7
2024/02/07 23:20:00, 0.0, 1.7
2024/02/07 23:30:00, 0.0, 1.5
2024/02/07 23:40:00, 0.0, 1.7
2024/02/07 23:50:00, 0.1, 1.4
